Scarborough,

8:59 PM AST on July 22, 2017 (GMT -0400)
Scarborough

Weather History for TTCP - January, 2014

Change the Weather History Date:

Tuesday, January 7, 2014

  Actual Average Record
Temperature  
Mean Temperature 80 °F -  
Max Temperature 84 °F 83 °F 87 °F (1997)
Min Temperature 75 °F 73 °F 73 °F (2000)
Cooling Degree Days 14    
Growing Degree Days 30 (Base 50)    
Moisture  
Dew Point 72 °F    
Average Humidity 79    
Maximum Humidity 89    
Minimum Humidity 66    
Precipitation  
Precipitation 0.00 in - - ()
Sea Level Pressure  
Sea Level Pressure 29.94 in    
Wind  
Wind Speed 5 mph ()    
Max Wind Speed 21 mph    
Max Gust Speed 25 mph    
Visibility 6.0 miles    
Events Rain    
Averages and records for this station are not official NWS values.
T = Trace of Precipitation, MM = Missing Value Source: Averaged Metar Reports

Daily Weather History Graph

Daily Weather History Graph

Search for Another Location

Airport or City:

Trip Planner

Search our weather history database for the weather conditions in past years. The results will help you decide how hot, cold, wet, or windy it might be!

Date:

Astronomy

Jan. 07, 2014 Rise Set
Actual Time 6:24 AM AST 5:54 PM AST
Civil Twilight 6:01 AM AST 6:17 PM AST
Nautical Twilight 5:35 AM AST 6:43 PM AST
Astronomical Twilight 5:09 AM AST 7:10 PM AST
Moon 11:27 AM AST (1/7) No Moon Set
Length of Visible Light 12h 15m
Length of Day
11h 30m
Waxing Crescent, 45% of the Moon is Illuminated
Jan 7
Waxing Crescent
Jan 7
First Quarter
Jan 16
Full
Jan 24
Last Quarter
Jan 30
New

Hourly Weather History & Observations

Time (AST) Temp. Heat Index Dew Point Humidity Pressure Visibility Wind Dir Wind Speed Gust Speed Precip Events Conditions
12:00 AM 77.0 °F - 71.6 °F 83% 29.95 in 6.2 mi ENE 5.8 mph - N/A   Scattered Clouds
1:00 AM 77.0 °F - 71.6 °F 83% 29.92 in 6.2 mi Calm Calm - N/A   Scattered Clouds
2:00 AM 78.8 °F - 73.4 °F 83% 29.92 in 6.2 mi Calm Calm - N/A   Scattered Clouds
3:00 AM 77.0 °F - 71.6 °F 83% 29.92 in 6.2 mi Calm Calm - N/A   Scattered Clouds
4:00 AM 75.2 °F - 71.6 °F 89% 29.92 in 6.2 mi Calm Calm - N/A   Scattered Clouds
5:00 AM 75.2 °F - 71.6 °F 89% 29.92 in 6.2 mi Calm Calm - N/A   Scattered Clouds
6:00 AM 75.2 °F - 69.8 °F 83% 29.92 in 5.0 mi ENE 9.2 mph - N/A   Scattered Clouds
7:00 AM 75.2 °F - 71.6 °F 89% 29.95 in 5.0 mi Calm Calm - N/A   Scattered Clouds
8:00 AM 78.8 °F - 75.2 °F 89% 29.98 in 3.7 mi ENE 6.9 mph 25.3 mph N/A Rain Light Rain Showers
9:00 AM 78.8 °F - 73.4 °F 83% 30.01 in 6.2 mi East 8.1 mph - N/A   Mostly Cloudy
10:00 AM 82.4 °F 88.2 °F 73.4 °F 74% 30.01 in 6.2 mi East 17.3 mph - N/A   Mostly Cloudy
11:00 AM 82.4 °F 88.2 °F 73.4 °F 74% 29.98 in 6.2 mi East 16.1 mph - N/A   Mostly Cloudy
12:00 PM 84.2 °F 89.6 °F 71.6 °F 66% 29.98 in 6.2 mi East 16.1 mph - N/A   Mostly Cloudy
1:00 PM 84.2 °F 90.9 °F 73.4 °F 70% 29.95 in 6.2 mi East 19.6 mph - N/A   Mostly Cloudy
2:00 PM 84.2 °F 90.9 °F 73.4 °F 70% 29.92 in 6.2 mi East 20.7 mph - N/A   Mostly Cloudy
3:00 PM 82.4 °F 87.2 °F 71.6 °F 70% 29.89 in - ENE 5.8 mph - N/A Rain Light Rain Showers
4:00 PM 82.4 °F 87.2 °F 71.6 °F 70% 29.89 in 6.2 mi East 13.8 mph - N/A   Mostly Cloudy
5:00 PM 80.6 °F 84.6 °F 71.6 °F 74% 29.89 in 6.2 mi ENE 13.8 mph - N/A   Mostly Cloudy
6:00 PM 78.8 °F - 69.8 °F 74% 29.89 in 6.2 mi ENE 5.8 mph - N/A   Mostly Cloudy
7:00 PM 78.8 °F - 69.8 °F 74% 29.92 in 6.2 mi ENE 3.5 mph - N/A   Mostly Cloudy
8:00 PM 77.0 °F - 71.6 °F 83% 29.92 in 6.2 mi Calm Calm - N/A   Mostly Cloudy
9:00 PM 77.0 °F - 69.8 °F 78% 29.95 in 6.2 mi Calm Calm - N/A   Mostly Cloudy
10:00 PM 77.0 °F - 69.8 °F 78% 29.95 in 6.2 mi Calm Calm - N/A Rain Light Rain Showers
11:00 PM 75.2 °F - 69.8 °F 83% 29.95 in 6.2 mi Calm Calm - N/A   Mostly Cloudy